Flag for Puerto Rico Weather past 2 weeks in San Juan, Puerto Rico

Now
83 °F

Passing clouds.


Feels Like: 91 °F
Forecast: 81 / 88 °F
Wind: 5 mph from South

Location: Luis Munoz Marin

Current Time: Oct 25, 2014 at 11:52:53 PM

Latest Report: Oct 25, 2014 at 10:56 PM


Visibility: 10 mi

Pressure: 29.89 "Hg

Humidity: 79%

Dew point: 76 °F

Location of San JuanLocation

Historic Weather in San Juan — Graph

°F

San Juan temperature yesterday

Maximum temperature yesterday: 92 °F (at 11:56 AM)
Minimum temperature yesterday: 80 °F (at 3:56 AM)
Average temperature yesterday: 85 °F

Past Weeks' High & Low Weather Summary

 TemperatureHumidityPressure
High93 °F (Oct 11, 12:56 PM)97% (Oct 13, 12:56 AM)30.01 "Hg (Oct 13, 12:56 AM)
Low76 °F (Oct 13, 9:56 PM)52% (Oct 11, 12:56 PM)29.83 "Hg (Oct 25, 3:56 PM)
Average83 °F77%29.92 "Hg
* Reported Oct 10 9:56 PM — Oct 25 9:56 PM, San Juan, Weather by CustomWeather, © 2014

Note: Actual official high and low records may vary slightly from our data, if they occured in-between our weather recording intervals... More about our weather records

Advertising

San Juan weather history for previous 24 hours

 ConditionsComfort  
Time TempWeatherWind HumidityBarometerVisibility
9:56 PM
Oct 25
83 °FPassing clouds.6 mph79%29.90 "Hg10 mi
8:56 PM83 °FPassing clouds.5 mph79%29.89 "Hg10 mi
7:56 PM84 °FPassing clouds.7 mph74%29.87 "Hg10 mi
6:56 PM85 °FPassing clouds.6 mph72%29.85 "Hg10 mi
5:56 PM86 °FScattered clouds.7 mph67%29.84 "Hg10 mi
4:56 PM88 °FScattered clouds.12 mph59%29.83 "Hg10 mi
3:56 PM89 °FScattered clouds.13 mph59%29.83 "Hg10 mi
2:56 PM91 °FScattered clouds.9 mph54%29.84 "Hg10 mi
1:56 PM91 °FScattered clouds.5 mph56%29.85 "Hg10 mi
12:56 PM88 °FScattered clouds.8 mph67%29.88 "Hg10 mi
11:56 AM85 °FBroken clouds.8 mph75%29.91 "Hg10 mi
10:56 AM87 °FScattered clouds.5 mph69%29.93 "Hg10 mi
9:56 AM87 °FScattered clouds.6 mph67%29.95 "Hg10 mi
8:56 AM85 °FScattered clouds.No wind72%29.95 "Hg10 mi
7:56 AM83 °FScattered clouds.No wind79%29.93 "Hg10 mi
6:56 AM80 °FPassing clouds.No wind87%29.91 "Hg10 mi
5:56 AM80 °FPassing clouds.No wind85%29.89 "Hg10 mi
4:56 AM80 °FPassing clouds.No wind81%29.88 "Hg10 mi
3:56 AM80 °FPassing clouds.3 mph85%29.87 "Hg10 mi
2:56 AM81 °FPassing clouds.No wind85%29.88 "Hg10 mi
1:56 AM81 °FPassing clouds.No wind85%29.89 "Hg10 mi
12:56 AM82 °FClear.No wind82%29.90 "Hg10 mi
11:56 PM
Oct 24
82 °FClear.No wind82%29.92 "Hg10 mi
Weather by CustomWeather, © 2014

See weather overviewHow to use our weather pages